DW9177 Weather Reports


Display with metric or nautical units.
time (UTC)temp
F
wind
direction
speed
MPH
gust
MPH
rain 1hr
in
rain 24hr
in
rain mn
in
humidity
%
barometer
mb
20260902153034 86 98 0.0 3.0 0.00 0.00 0.00 54 1011.3
20260902151529 85 102 0.0 3.0 0.00 0.00 0.00 56 1011.4
20260902150027 85 120 0.0 3.0 0.00 0.00 0.00 56 1011.4
20260902144528 83 103 0.0 4.0 0.00 0.00 0.00 58 1011.2
20260902143021 82 104 0.0 0.0 0.00 0.00 0.00 62 1011.3
20260902141525 80 126 0.0 0.0 0.00 0.00 0.00 67 1011.3
20260902140015 80 91 0.0 0.0 0.00 0.00 0.00 66 1011.2
20260902134513 78 91 0.0 0.0 0.00 0.00 0.00 71 1011.0
20260902133015 76 91 0.0 0.0 0.00 0.00 0.00 74 1010.8
20260902131510 74 179 0.0 0.0 0.00 0.00 0.00 76 1010.7
20260902130021 74 179 0.0 0.0 0.00 0.00 0.00 76 1010.7
20260902124509 74 179 0.0 0.0 0.00 0.00 0.00 75 1010.7
20260902123009 74 92 0.0 0.0 0.00 0.00 0.00 75 1010.5
20260902121507 75 103 0.0 0.0 0.00 0.00 0.00 72 1010.5
20260902120006 75 103 0.0 0.0 0.00 0.00 0.00 71 1010.5
20260902114508 75 104 0.0 0.0 0.00 0.00 0.00 71 1010.5
20260902113005 75 103 0.0 0.0 0.00 0.00 0.00 72 1010.5
20260902111504 75 104 0.0 0.0 0.00 0.00 0.00 71 1010.5
20260902110008 76 102 0.0 0.0 0.00 0.00 0.00 71 1010.5
20260902104504 75 105 1.0 3.0 0.00 0.00 0.00 73 1010.6
20260902103003 75 101 0.0 0.0 0.00 0.00 0.00 74 1010.6
20260902101501 75 101 0.0 0.0 0.00 0.00 0.00 75 1010.7
20260902094559 76 101 0.0 0.0 0.00 0.00 0.00 72 1010.7
20260902093054 76 101 0.0 1.0 0.00 0.00 0.00 71 1010.5
20260902091604 76 108 0.0 5.0 0.00 0.00 0.00 70 1010.5
20260902090056 77 117 1.0 6.0 0.00 0.00 0.00 69 1010.4
20260902084554 77 122 1.0 4.0 0.00 0.00 0.00 69 1010.4
20260902083110 77 101 0.0 0.0 0.00 0.00 0.00 68 1010.4
20260902081550 77 101 0.0 0.0 0.00 0.00 0.00 68 1010.4
20260902080046 78 165 0.0 0.0 0.00 0.00 0.00 67 1010.3
20260902074544 78 165 0.0 0.0 0.00 0.00 0.00 66 1010.3
20260902073041 79 167 0.0 2.0 0.00 0.00 0.00 65 1010.3
20260902071537 79 103 1.0 6.0 0.00 0.00 0.00 64 1010.2
20260902070040 80 105 2.0 6.0 0.00 0.00 0.00 63 1010.1
20260902064540 80 106 2.0 5.0 0.00 0.00 0.00 62 1010.1
20260902063037 80 105 1.0 6.0 0.00 0.00 0.00 60 1010.1
20260902061544 80 109 1.0 4.0 0.00 0.00 0.00 60 1010.2
20260902060033 81 106 2.0 5.0 0.00 0.00 0.00 60 1010.2
20260902054537 81 98 2.0 4.0 0.00 0.00 0.00 60 1010.3
20260902053033 81 107 0.0 0.0 0.00 0.00 0.00 61 1010.3
20260902051534 82 104 1.0 3.0 0.00 0.00 0.00 60 1010.4
20260902050032 82 105 0.0 3.0 0.00 0.00 0.00 59 1010.5
20260902044533 82 110 0.0 0.0 0.00 0.00 0.00 56 1010.4
20260902043040 84 127 0.0 1.0 0.00 0.00 0.00 54 1010.3
20260902041530 84 134 0.0 1.0 0.00 0.00 0.00 54 1010.1
20260902040030 84 135 0.0 2.0 0.00 0.00 0.00 53 1010.0
20260902034530 84 124 0.0 2.0 0.00 0.00 0.00 52 1009.8
20260902033029 85 125 0.0 1.0 0.00 0.00 0.00 52 1009.6
20260902031537 85 130 0.0 2.0 0.00 0.00 0.00 52 1009.1
20260902030031 85 136 0.0 4.0 0.00 0.00 0.00 50 1008.9
20260902024528 86 136 0.0 3.0 0.00 0.00 0.00 48 1008.6
20260902023033 87 121 0.0 5.0 0.00 0.00 0.00 46 1008.4
20260902021526 87 134 0.0 3.0 0.00 0.00 0.00 46 1008.3
20260902020028 87 134 2.0 6.0 0.00 0.00 0.00 45 1008.1
20260902014530 88 139 2.0 7.0 0.00 0.00 0.00 45 1008.0
20260902013025 89 126 2.0 9.0 0.00 0.00 0.00 45 1008.0
20260902011523 90 135 2.0 10.0 0.00 0.00 0.00 43 1008.0
20260902010026 91 139 3.0 8.0 0.00 0.00 0.00 40 1007.9
20260902004525 92 139 3.0 8.0 0.00 0.00 0.00 39 1007.9
20260902003021 93 143 4.0 9.0 0.00 0.00 0.00 39 1008.0
20260902001519 93 139 1.0 9.0 0.00 0.00 0.00 39 1008.0
20260902000019 94 140 2.0 7.0 0.00 0.00 0.00 39 1008.1
20260901234517 94 134 2.0 10.0 0.00 0.00 0.00 39 1008.2
20260901233017 94 135 4.0 10.0 0.00 0.00 0.00 39 1008.5
20260901231514 94 136 3.0 8.0 0.00 0.00 0.00 38 1008.6
20260901230013 95 146 3.0 8.0 0.00 0.00 0.00 37 1008.7
20260901224520 95 132 2.0 8.0 0.00 0.00 0.00 37 1008.8
20260901223009 95 141 2.0 6.0 0.00 0.00 0.00 38 1009.0
20260901221520 94 122 1.0 6.0 0.00 0.00 0.00 37 1009.2
20260901220003 94 153 2.0 7.0 0.00 0.00 0.00 37 1009.5
20260901214502 94 123 2.0 5.0 0.00 0.00 0.00 39 1009.7
20260901213109 94 98 1.0 6.0 0.00 0.00 0.00 38 1010.0
20260901211556 94 129 2.0 6.0 0.00 0.00 0.00 38 1010.4
20260901210054 93 125 1.0 7.0 0.00 0.00 0.00 38 1010.6
20260901204605 93 131 0.0 6.0 0.00 0.10 0.00 39 1010.8
20260901203054 93 134 2.0 6.0 0.00 0.10 0.00 41 1011.1
20260901201552 92 130 2.0 9.0 0.00 0.10 0.00 41 1011.4
20260901200111 91 121 2.0 6.0 0.00 0.10 0.00 40 1011.6
20260901194603 91 134 2.0 7.0 0.00 0.30 0.00 41 1011.7
20260901193050 91 143 1.0 4.0 0.00 0.30 0.00 42 1012.0
20260901191621 91 107 0.0 6.0 0.00 0.30 0.00 41 1012.2
20260901190041 90 127 1.0 5.0 0.00 0.30 0.00 42 1012.4
20260901184540 89 136 2.0 5.0 0.00 0.33 0.00 43 1012.4
20260901183049 89 136 2.0 6.0 0.00 0.33 0.00 44 1012.7
20260901181542 89 155 2.0 4.0 0.00 0.33 0.00 42 1012.7
20260901180035 88 120 0.0 3.0 0.00 0.33 0.00 42 1012.9
20260901174534 87 131 0.0 5.0 0.00 0.33 0.00 47 1013.0
20260901173033 87 121 1.0 4.0 0.00 0.33 0.00 47 1013.0
20260901171532 86 134 1.0 3.0 0.00 0.33 0.00 48 1013.2
20260901170029 86 141 0.0 2.0 0.00 0.33 0.00 47 1013.1
20260901164525 84 106 0.0 1.0 0.00 0.33 0.00 53 1013.1
20260901163023 83 144 1.0 3.0 0.00 0.33 0.00 58 1013.1
20260901161526 82 158 0.0 3.0 0.00 0.33 0.00 59 1013.1
20260901160020 82 161 0.0 2.0 0.00 0.33 0.00 60 1013.0
20260901154517 81 169 0.0 2.0 0.00 0.33 0.00 62 1013.2